Hourly Data Report for October 28, 2014

All times are specified in Local Standard Time (LST). Add 1 hour to adjust for Daylight Saving Time where and when it is observed.

PETAWAWA AWOS 2
ONTARIO

45°57'00.000" N
77°19'00.000" W
130.10 m
6106396
71625
YWA

Download Data

Hourly Data (October 2014)
Hourly Data Report for October 28, 2014
Temp Definition
°C
Dew Point Temp Definition
°C
Rel Hum Definition
%
Wind Dir Definition
10's deg

Wind Spd Definition
km/h
Visibility Definition
km
Stn Press Definition
kPa
Hmdx Definition


Wind Chill Definition


Weather Definition


TIME
00:00 7.1 4.4 83 11 9 14.5 99.78     Rain
01:00 7.2 4.2 81 13 17 14.5 99.71     Rain
02:00 7.3 4.4 82 13 19 14.5 99.66     LegendNANA
03:00 7.3 4.6 83 12 13 9.7 99.63     Rain
04:00 7.4 4.4 81 13 15 14.5 99.62     LegendNANA
05:00 7.4 4.1 80 12 17 14.5 99.58     LegendNANA
06:00 7.5 3.9 78 12 19 14.5 99.54     LegendNANA
07:00 7.7 4.1 78 11 17 14.5 99.52     LegendNANA
08:00 7.6 3.9 77 12 20 14.5 99.50     Drizzle
09:00 8.1 4.1 76 12 20 14.5 99.44     Rain
10:00 8.3 4.2 75 14 19 14.5 99.38     LegendNANA
11:00 8.8 5.0 77 14 30 14.5 99.27     LegendNANA
12:00 8.8 5.3 79 14 20 14.5 99.16     Rain
13:00 9.2 5.7 79 14 20 14.5 99.03     LegendNANA
14:00 10.0 6.3 78 13 22 14.5 98.89     LegendNANA
15:00 10.6 6.9 78 13 19 14.5 98.83     LegendNANA
16:00 10.4 7.8 84 11 7 4.8 98.78     Rain
17:00 10.5 8.3 86 13 19 4.0 98.80     Rain
18:00 10.9 8.3 84 1 4 4.0 98.93     Moderate Rain
19:00 10.1 8.2 88 19 4 6.4 98.93     Rain
20:00
21:00 7.9 5.9 87 20 4 0.5 99.02     LegendNANA
22:00 7.3 5.6 89   0 8.0 99.07     LegendNANA
23:00                    

Notes on Data Quality.

Legend

  • E = Estimated
  • M = Missing
  • NA = Not Available
  • ‡ = Partner data that is not subject to review by the National Climate Archives
Date modified: